Probability
0 0 0 0 0 0 0 0 0 0 1 2 5 7 6 6 5 4 3 2 2 3 3 2 1 1 2 5 9 13 13 13 13 13 12 10 7 6 6 6 7 8 9 9
0 0 0 0 0 0 0 0 0 0 0 2 5 7 7 6 4 3 3 2 3 4 4 4 3 3 5 7 11 14 14 13 12 11 11 10 8 6 6 6 6 6 6 6
0 0 0 0 0 0 0 0 0 0 1 3 6 9 10 8 5 3 3 4 5 7 7 7 6 6 7 9 12 15 15 13 11 10 10 9 8 6 5 4 4 4 4 4
0 0 0 0 0 0 0 1 1 1 2 5 9 11 12 10 7 6 5 6 7 8 8 8 7 8 8 9 12 16 17 15 14 11 9 9 9 6 5 4 3 3 3 3
0 0 0 0 0 0 1 2 3 3 5 9 11 11 10 9 8 8 7 7 7 8 9 9 8 8 7 8 12 17 18 16 15 12 10 10 9 7 7 6 5 4 5 5
0 0 0 0 1 1 1 2 4 6 8 11 10 7 5 5 6 6 7 7 6 7 10 10 8 6 6 7 10 15 16 14 14 12 11 10 9 8 8 8 7 7 7 8
0 0 0 0 1 1 0 1 4 6 7 7 6 4 3 5 5 6 7 7 6 6 7 8 6 4 4 4 7 10 11 10 11 11 11 11 11 9 9 9 9 8 8 7
0 0 0 0 1 0 0 1 3 5 5 4 4 5 6 7 8 8 9 9 8 5 4 4 5 4 3 2 3 6 7 8 8 9 9 11 12 10 9 8 8 9 8 6
0 0 0 0 1 1 1 1 2 4 5 4 4 6 8 9 9 10 11 10 8 6 4 4 4 5 4 3 4 6 7 7 7 8 8 9 10 9 8 7 8 9 9 7
1 1 1 1 1 1 2 2 3 4 5 5 5 6 7 8 9 9 9 8 7 6 5 5 6 7 6 6 6 8 9 9 9 9 8 8 7 7 7 8 9 10 9 7
2 2 2 2 2 3 4 4 4 5 6 6 6 6 6 6 7 8 9 8 7 6 5 5 6 6 6 6 6 7 8 8 8 8 8 8 7 7 7 8 9 8 7 7
2 2 3 4 4 4 5 6 6 6 6 5 5 6 6 5 5 6 8 8 7 6 5 4 4 4 4 4 4 5 5 5 5 6 8 8 8 8 7 7 6 4 4 5
2 3 4 5 6 6 6 6 6 6 5 4 4 4 4 3 2 3 5 6 6 6 6 5 4 3 3 3 3 4 4 4 4 5 7 8 8 9 8 6 4 2 2 2
3 4 5 6 6 6 5 4 3 3 3 3 3 3 3 2 1 1 2 3 4 5 5 6 5 5 4 4 4 5 5 4 3 4 5 6 6 8 8 8 6 4 2 1
4 5 5 5 5 5 4 3 2 1 1 1 2 2 2 1 0 0 0 1 1 2 4 5 6 6 6 5 5 5 4 4 3 3 4 4 4 5 6 7 7 6 5 4
4 4 4 4 3 3 3 2 1 0 0 0 1 1 1 0 0 0 0 0 0 1 3 4 5 6 6 6 5 4 3 2 2 2 3 3 3 3 4 4 5 6 6 6
3 3 3 3 2 1 1 1 1 0 0 0 0 0 0 0 0 0 0 0 0 1 2 3 3 4 5 5 5 3 2 1 1 1 1 2 2 2 1 2 3 5 6 6
3 3 3 2 1 0 0 0 0 0 0 0 0 0 0 0 0 0 0 0 0 0 1 2 2 2 3 4 4 3 2 1 0 0 0 1 1 1 0 1 3 4 4 4
3 2 1 1 0 0 0 0 0 0 0 0 0 0 0 0 0 0 0 0 0 1 1 1 1 1 2 2 2 2 2 1 0 0 0 0 0 0 1 1 3 3 3 3
2 1 0 0 0 0 0 0 0 0 0 0 0 0 0 0 0 0 0 0 0 1 1 0 0 0 1 1 1 1 1 0 0 0 1 1 1 1 1 2 2 3 3 3
1 0 0 0 0 0 0 0 0 0 0 0 0 0 0 0 0 0 0 0 0 0 0 0 0 0 0 0 0 0 0 0 0 1 2 2 2 1 1 1 1 2 2 2
0 0 0 0 0 0 0 0 0 0 0 0 0 0 0 0 0 0 0 0 0 0 0 0 0 0 0 0 0 0 0 0 0 1 2 3 2 1 0 0 0 1 1 1
0 0 0 0 0 0 0 0 0 0 0 0 0 0 0 0 0 0 0 0 0 0 0 0 0 0 0 0 0 0 0 0 0 1 2 2 2 1 0 0 0 0 0 0
0 0 0 0 0 0 0 0 0 0 0 0 0 0 0 0 0 0 0 0 0 0 0 0 0 0 0 0 0 0 0 0 0 0 1 1 1 0 0 0 0 0 0 0
0 0 0 0 0 0 0 0 0 0 0 0 0 0 0 0 0 0 0 0 0 0 0 0 0 0 0 0 0 0 0 0 0 0 0 0 0 0 0 0 0 0 0 0
0 0 0 0 0 0 0 0 0 0 0 0 0 0 0 0 0 0 0 0 0 0 0 0 0 0 0 0 0 0 0 0 0 0 0 0 0 0 0 0 0 0 0 0
0 0 0 0 0 0 0 0 0 0 0 0 0 0 0 0 0 0 0 0 0 0 0 0 0 0 0 0 0 0 0 0 0 0 0 0 0 0 0 0 0 0 0 0
Wind_Speed
2 2 2 2 3 4 4 6 7 6 5 6 5 3 2 0 1 1 1 1 0 1 2 2 2 3 4 3 3 3 3 3 3 2 1 1 1 1 0 0 1 1 1 1
2 1 2 1 1 3 3 3 3 2 4 5 2 1 0 0 0 1 1 1 1 1 1 2 3 3 4 3 3 4 4 3 2 2 1 1 1 1 0 1 1 1 1 1
1 3 3 2 3 3 2 2 5 5 6 1 1 2 3 2 1 2 2 1 1 1 1 1 2 3 4 4 3 4 4 3 2 2 2 2 2 1 1 1 1 1 2 2
2 3 2 6 2 3 4 0 1 2 2 3 3 2 1 1 2 2 2 1 1 1 1 1 1 1 2 2 2 3 2 2 2 2 2 2 1 2 2 1 1 2 2 2
4 2 3 5 1 2 3 1 1 1 1 1 2 3 2 1 1 2 3 2 1 1 1 0 0 1 2 2 2 2 2 3 3 3 2 2 2 2 2 1 1 2 2 2
4 4 5 5 2 1 3 2 2 2 3 2 3 1 4 2 1 1 1 1 0 0 1 1 0 1 3 2 2 2 3 3 3 3 3 3 3 3 2 1 2 1 1 1
4 3 6 4 4 1 3 6 3 2 3 3 2 4 3 2 2 1 1 1 1 1 0 0 1 2 3 2 3 3 2 2 2 2 3 3 2 1 1 1 1 1 1 1
4 3 6 3 2 3 5 2 1 2 3 2 1 1 1 1 1 0 1 1 1 1 1 1 1 2 1 2 2 1 1 1 1 1 2 1 1 1 1 1 1 1 1 2
6 6 4 2 2 3 2 2 1 2 1 2 1 1 1 1 1 1 0 0 0 1 1 2 1 2 2 2 0 1 1 0 0 0 0 0 1 1 1 1 1 1 1 2
1 3 3 2 1 1 0 1 1 2 1 1 0 0 0 1 1 1 1 1 0 1 1 1 1 1 1 1 2 2 2 1 0 0 0 1 0 1 1 1 1 1 2 2
1 3 2 3 2 1 2 2 2 2 1 0 1 0 1 1 1 1 1 1 0 1 1 1 1 0 0 1 2 2 2 1 1 1 1 0 0 1 1 2 2 3 2 2
5 6 4 3 2 1 2 1 1 2 2 1 1 1 0 0 1 1 0 0 0 0 1 1 1 1 1 0 2 2 1 1 1 1 1 1 1 1 2 2 2 3 3 3
4 3 3 2 1 1 1 0 1 1 0 0 1 1 1 0 0 0 0 0 1 1 2 1 1 1 1 1 2 2 2 2 1 1 1 1 1 1 2 3 2 2 3 3
2 3 2 0 0 1 1 0 1 2 2 0 1 1 1 1 1 0 1 1 1 1 1 1 1 2 2 1 1 1 2 2 2 2 2 2 2 2 1 2 2 3 3 3
0 1 3 1 1 1 1 1 2 2 2 2 2 1 1 1 0 1 1 0 1 1 0 0 1 3 2 1 1 1 1 1 1 1 1 1 1 1 1 2 2 2 2 3
1 2 2 2 1 1 1 1 1 1 1 1 1 1 1 1 0 1 1 1 1 0 1 1 2 3 1 1 1 1 1 2 1 1 1 1 1 1 2 2 2 2 2 2
3 2 1 1 0 1 0 0 1 1 0 0 1 0 1 2 2 1 1 1 0 1 1 2 3 2 1 1 1 1 1 1 1 1 1 1 2 2 2 2 2 3 3 3
3 3 3 3 2 1 1 1 1 0 0 1 0 1 1 0 0 1 1 1 1 2 2 2 2 2 1 1 1 1 1 1 1 1 1 1 2 2 2 2 3 3 3 3
2 2 2 2 2 1 0 0 1 1 0 1 1 1 1 1 1 1 0 1 1 2 4 3 3 2 2 2 1 0 0 1 1 1 1 2 2 2 2 2 3 3 3 3
2 2 1 1 1 1 0 1 1 1 1 1 1 1 1 2 1 0 0 1 3 3 3 3 2 2 2 2 1 0 1 1 1 1 1 1 2 2 2 2 3 3 3 3
1 1 2 1 1 1 0 0 0 0 1 0 1 1 1 2 1 0 0 2 4 3 2 2 1 1 1 1 1 1 1 1 1 2 2 2 2 2 2 2 3 3 3 3
1 1 1 0 0 1 2 1 0 0 0 1 1 1 1 2 2 1 2 3 3 3 2 2 1 2 1 1 0 1 1 1 1 2 2 2 2 2 2 2 2 2 2 2
1 1 1 0 1 1 1 1 0 0 1 1 1 1 2 2 1 1 3 3 2 2 2 2 2 2 2 1 0 1 1 1 1 2 2 2 2 2 2 2 2 2 2 2
0 0 0 1 0 1 1 2 1 1 1 1 2 2 1 1 1 2 2 3 3 2 1 2 3 2 2 1 0 0 1 1 1 1 1 1 1 1 1 2 2 2 2 3
1 1 0 0 0 1 1 1 1 1 1 1 2 2 1 1 2 2 2 2 2 2 2 2 2 2 1 1 1 1 1 1 1 1 1 1 1 1 1 1 2 2 2 2
1 1 2 2 2 2 1 1 1 1 1 1 2 2 1 1 1 1 1 2 2 2 1 1 1 1 1 1 1 1 1 1 1 1 1 1 1 1 1 1 2 2 2 2
1 1 1 1 1 1 1 1 1 2 2 1 2 2 1 1 1 1 2 2 2 1 1 1 1 1 1 1 1 1 1 1 1 1 1 1 1 1 1 2 1 1 2 2
Wind_Direction
203 215 165 172 180 161 163 176 179 214 219 248 240 233 236 238 57 55 43 47 162 209 205 190 183 186 190 195 187 173 170 183 202 205 197 214 248 250 252 235 243 244 252 275
27 14 105 77 239 168 172 169 180 191 248 251 238 161 128 66 44 2 312 310 315 295 226 208 202 197 188 194 188 171 179 197 201 180 179 209 234 238 228 257 281 283 262 266
252 314 47 304 254 181 170 186 168 196 229 181 151 198 209 212 216 249 268 264 258 248 235 245 232 205 198 195 177 173 187 193 184 184 208 226 234 238 244 245 250 265 256 245
112 71 207 248 280 153 139 155 219 215 212 187 202 213 233 202 200 249 261 258 264 295 319 289 241 203 184 163 161 179 194 199 191 189 213 227 238 252 257 248 242 248 256 257
116 149 269 294 324 141 142 255 250 180 136 82 89 56 350 303 234 233 249 260 247 222 227 236 230 181 143 143 158 176 206 207 202 197 204 208 225 250 254 234 247 255 261 253
120 147 220 246 291 275 110 287 261 164 153 134 95 85 272 293 303 281 305 306 323 37 66 64 309 143 139 154 162 205 221 219 210 199 201 211 219 229 234 217 230 251 279 284
137 184 255 267 296 58 150 242 253 193 180 159 173 210 244 276 298 300 340 330 71 96 62 274 245 142 149 165 206 220 212 206 210 210 211 215 212 212 221 228 253 275 294 303
138 168 250 306 58 160 218 253 214 186 177 161 196 253 255 245 265 343 2 356 49 61 351 341 51 105 150 213 235 216 169 166 207 225 231 224 188 216 223 214 233 269 275 293
180 206 247 268 237 251 188 183 209 173 187 152 154 242 264 276 308 320 311 314 58 105 8 356 44 114 167 244 240 104 98 143 215 295 267 259 188 206 231 228 224 257 261 271
248 279 290 305 326 7 22 177 178 160 157 121 179 234 280 314 337 339 320 310 324 113 94 336 350 101 179 182 139 126 136 160 144 96 322 325 278 193 199 222 232 251 262 275
244 274 329 341 348 17 35 55 69 53 43 120 135 133 196 238 279 274 272 293 126 158 214 266 287 305 297 167 145 140 146 155 150 165 212 289 297 240 224 233 218 220 239 243
212 220 186 245 290 0 72 50 69 69 17 351 144 161 129 290 286 273 249 260 104 245 255 266 257 275 292 212 158 148 148 168 191 214 230 221 264 316 332 270 274 246 241 235
214 206 189 228 338 27 98 333 351 60 161 301 1 127 141 184 328 89 122 157 211 236 253 260 255 277 281 237 175 163 179 199 201 212 217 223 234 247 302 331 333 312 286 270
185 131 110 169 244 343 100 58 30 25 5 40 90 95 114 97 54 75 200 213 204 204 253 245 243 276 275 239 193 188 194 214 214 223 217 223 233 239 245 273 307 322 322 302
315 169 178 162 80 43 53 86 69 23 11 15 38 66 94 115 151 250 279 77 83 68 345 295 288 290 295 228 201 210 206 220 218 223 227 232 246 252 255 260 267 284 307 316
53 76 99 94 88 65 68 88 103 328 351 17 32 20 37 75 50 22 17 82 96 310 297 303 284 283 291 204 203 241 243 228 210 215 229 239 250 250 253 254 262 271 277 282
118 121 113 104 72 27 358 252 212 238 253 211 240 328 49 45 33 18 349 342 214 256 277 270 274 289 296 217 210 235 249 269 261 245 245 250 252 248 243 243 252 260 267 267
163 172 169 167 171 176 340 349 349 317 243 245 84 76 79 110 241 278 295 330 359 343 313 291 291 309 301 272 224 222 230 242 244 253 257 256 260 256 251 248 250 258 273 280
134 139 133 132 144 140 131 330 323 339 7 88 118 164 234 245 243 266 323 12 324 298 295 304 310 306 296 295 301 235 242 259 271 275 263 258 259 260 255 253 253 253 263 269
95 100 94 79 81 105 91 321 352 25 14 83 95 50 338 306 296 265 62 271 258 255 275 295 304 298 290 292 297 231 226 244 260 279 273 260 260 264 262 264 268 267 268 262
105 101 101 90 49 17 324 234 96 10 352 74 131 237 281 300 298 271 232 283 286 284 286 289 291 288 283 285 287 257 248 249 251 256 262 262 265 268 267 270 272 270 266 265
122 123 131 121 81 344 325 315 225 196 8 353 350 326 308 305 317 323 281 256 281 303 308 298 294 283 284 291 237 240 256 260 263 263 263 260 257 264 271 275 276 282 280 272
124 151 172 223 230 264 316 336 309 211 248 274 268 256 252 259 261 261 290 286 288 301 306 299 298 299 312 332 269 247 258 275 282 278 272 264 257 260 267 275 279 289 300 298
58 359 265 262 124 76 349 322 323 304 268 267 263 250 232 253 288 268 261 290 299 303 313 307 306 316 337 348 315 292 282 289 294 297 300 294 283 278 278 280 289 302 309 315
235 231 194 83 45 272 264 291 331 329 322 320 314 302 284 243 251 281 292 298 306 319 324 321 323 332 354 350 337 318 305 295 296 312 327 319 309 309 310 310 306 306 312 317
252 255 251 238 233 242 246 241 256 278 302 319 319 313 314 311 300 310 325 327 333 333 333 330 335 346 2 357 350 339 323 322 326 322 321 321 323 322 323 323 320 320 327 334
276 262 274 305 294 272 262 246 240 251 249 254 283 297 306 321 341 354 357 346 335 335 340 333 341 3 3 2 2 359 355 350 346 338 338 344 341 332 325 318 318 324 333 344